#timestamp,LO_Frequency,Hit 
1503662415.6,286046996.6,N
1503662435.5,286046996.7,N
1503662455.3,286046997.7,N
1503662475.1,286046995.5,N
1503662495.9,286046994.6,P
1503662515.7,286046998.0,N
1503662535.5,286046997.5,N
1503662555.4,286046997.7,N
1503662575.2,286046997.8,N
1503662595.0,286046997.7,N
1503662595.9,286046997.7,N
1503662615.8,286046993.5,P
1503662635.6,286046997.3,N
1503662655.4,286046995.3,N
1503662675.3,286046994.5,P
1503662695.1,286046999.4,N
1503662696.0,286046999.4,N
1503662715.8,286047000.6,N
1503662735.7,286046998.1,N
1503662755.5,286047000.5,N
1503662775.3,286047002.7,N
1503662795.2,286047003.8,N
1503662815.9,286047006.0,N
1503662835.7,286047007.6,N
1503662855.5,286047007.5,N
1503662875.4,286047007.0,N
1503662895.2,286047006.6,N
1503662915.0,286047004.7,N
1503662915.9,286047004.7,N
1503662935.8,286047006.4,N
1503662955.6,286047006.6,N
1503662975.4,286047006.5,N
1503662995.3,286047008.5,N
1503663015.1,286047007.8,N
1503663016.0,286047007.8,N
1503663035.8,286047008.7,N
1503663055.7,286047007.0,N
1503663075.5,286047001.3,N
1503663095.3,286047002.5,N
1503663115.2,286047001.2,N
1503663135.9,286047000.7,N
1503663155.7,286047000.5,N
1503663175.6,286047001.1,N
1503663195.4,286047000.5,N
1503663215.2,286047000.5,N
1503663235.0,286047002.6,N
1503663236.0,286047002.6,N
1503663255.8,286047000.3,N
1503663275.6,286047001.2,N
1503663295.4,286047000.5,N
1503663315.3,286046999.8,N
1503663335.1,286047000.2,N
1503663355.8,286047000.0,N
1503663375.7,286046998.4,N
1503663395.5,286047001.1,N
1503663415.3,286047001.0,N
1503663435.2,286046998.6,N
1503663455.9,286047001.2,N
1503663475.7,286047000.9,N
1503663495.6,286047001.2,N
1503663515.4,286046998.5,N
1503663535.2,286046997.5,N
1503663555.1,286046997.4,N
1503663556.0,286046997.4,N
1503663575.8,286046996.2,N
1503663595.6,286046995.1,N
1503663615.5,286046995.9,N
1503663635.3,286046993.9,P
1503663655.1,286046992.3,N
1503663675.9,286046994.8,N
1503663695.7,286046990.5,P
1503663715.5,286046997.5,N
1503663735.4,286046994.9,N
1503663755.2,286046995.1,N
1503663775.0,286046998.0,N
1503663775.9,286046998.0,N
1503663795.8,286046997.3,N
1503663815.6,286046997.1,N
1503663835.4,286046997.8,N
1503663855.3,286046997.9,N
1503663875.1,286046999.3,N
1503663876.0,286046999.3,N
1503663895.1,286047000.6,N
1503663896.0,286047000.6,N
1503663915.8,286046998.8,N
1503663935.7,286046997.3,N
1503663955.5,286046997.9,N
1503663975.3,286046997.3,N
1503663995.1,286046996.1,N
1503664015.9,286046998.0,N
1503664035.7,286046995.5,N
1503664055.5,286046994.1,N
1503664075.4,286046995.1,N
1503664095.2,286046995.9,N
1503664115.0,286046994.8,N
1503664115.9,286046994.8,N
1503664135.8,286046994.3,N
1503664155.6,286046994.3,N
1503664175.4,286046991.7,P
1503664195.3,286046997.9,N
1503664215.1,286046997.0,N
1503664235.8,286046997.9,N
1503664255.7,286046997.5,N
1503664275.5,286046995.1,N
1503664295.3,286046993.8,P
1503664315.2,286046997.3,N
1503664335.9,286046997.3,N
1503664355.7,286046996.8,N
1503664375.6,286046997.2,N
1503664395.4,286046997.8,N
1503664415.2,286046997.6,N
1503664435.1,286046997.9,N
1503664436.0,286046997.9,N
1503664455.8,286046993.4,P
1503664475.6,286046995.0,N
1503664495.5,286046995.5,P
1503664515.3,286046995.8,P
1503664535.1,286046998.3,P
1503664555.9,286046998.1,N
1503664575.7,286047000.6,N
1503664595.5,286047004.0,N
1503664615.4,286047005.8,N
1503664635.2,286047006.3,N
1503664655.0,286047004.5,N
1503664655.9,286047004.5,N
1503664675.8,286047008.8,N
1503664695.6,286047007.4,N
1503664715.4,286047007.5,N
1503664735.3,286047005.5,N
1503664755.1,286047002.1,N
1503664756.0,286047002.1,N
1503664775.8,286047001.9,N
1503664795.7,286047000.2,N
1503664815.5,286047002.0,N
1503664835.3,286047004.1,N
1503664855.2,286047003.2,N
1503664875.9,286047004.8,N
1503664895.7,286047005.1,N
1503664915.5,286047005.7,N
1503664935.4,286047007.1,N
1503664955.2,286047003.0,N
1503664975.0,286047003.9,N
1503664975.9,286047003.9,N
1503664995.8,286047002.3,N
1503665015.6,286047001.3,N
1503665035.4,286046998.5,N
1503665055.3,286046998.3,N
1503665075.1,286046997.9,N
1503665076.0,286046997.9,N
1503665095.8,286046993.7,N
1503665115.7,286046994.6,N
1503665135.5,286046992.7,N
1503665155.3,286046989.2,N
1503665175.2,286046989.8,N
1503665195.9,286046990.5,N
1503665215.7,286046992.8,N
1503665235.6,286046994.3,N
1503665255.4,286046991.8,N
1503665275.2,286046992.4,N
1503665295.0,286046990.6,N
1503665296.0,286046990.6,N
1503665315.8,286046991.4,N
1503665335.6,286046991.5,N
1503665355.4,286046991.3,N
1503665375.3,286046991.2,N
1503665395.1,286046991.5,N
1503665415.8,286046990.8,N
1503665435.7,286046989.6,N
1503665455.5,286046988.9,N
1503665475.3,286046990.2,N
1503665495.2,286046990.8,N
1503665515.9,286046991.5,N
1503665535.7,286046992.7,N
1503665555.6,286046990.2,N
1503665575.4,286046994.1,N
1503665595.2,286046992.1,N
1503665615.1,286046990.4,P
1503665616.0,286046990.4,P
1503665635.8,286046998.2,N
1503665655.6,286046999.9,N
1503665675.5,286046999.1,N
1503665695.3,286046996.9,N
1503665715.1,286046998.5,N
1503665735.8,286046999.9,N
1503665755.7,286047000.1,N
1503665775.5,286047002.4,N
1503665795.3,286047002.7,N
1503665815.2,286047003.7,N
1503665835.9,286047003.5,N
1503665855.7,286047002.0,N
1503665875.6,286047000.6,N
1503665895.4,286047000.7,N
1503665915.2,286046998.9,N
1503665935.1,286046998.6,N
1503665936.0,286046998.6,N
1503665955.8,286046998.7,N
1503665975.6,286046999.9,N
1503665995.5,286046997.4,N
